Regional Weather Roundup
Issued by NWS

Home | Current Version | Previous Version | Text Only | Print | Product List | Glossary Off
Versions: 1 2 3 4 5 6 7 8 9 10 11 12 13 14 15 16 17 18 19 20 21 22 23 24 25 26 27 28 29 30 31 32 33 34 35 36 37 38 39 40 41 42 43 44 45 46 47 48 49 50

000
ASUS44 KMEG 020810
RWRTN
TENNESSEE HOURLY STATE WEATHER ROUNDUP
NATIONAL WEATHER SERVICE MEMPHIS TN
300 AM CDT THU JUL 02 2015

TNZ002-004-019-021-049-052-054-088>092-020900-
WEST TENNESSEE

CITY           SKY/WX    TMP DP  RH WIND       PRES   REMARKS
MEMPHIS INTL   CLOUDY    80  72  76 SW9       29.91S
NWS MEMPHIS      N/A     80 N/A N/A MISG        N/A
JACKSON        CLOUDY    76  71  85 SW9       29.90F
DYERSBURG        N/A    N/A N/A N/A MISG        N/A
PARIS          CLEAR     70  68  94 S7        29.88F
LEXINGTON      CLEAR     73  72  94 SW8       29.90F
$$

TNZ008-025-027-028-033-062-065-066-020900-
NORTH MIDDLE TENNESSEE

CITY           SKY/WX    TMP DP  RH WIND       PRES   REMARKS
NASHVILLE      CLOUDY    72  72 100 S6        29.91F
CLARKSVILLE    CLOUDY    71  70  96 SW5       29.88F
SMYRNA         CLOUDY    70  68  93 S6        29.92F
COOKEVILLE     MOCLDY    70  68  94 S3        29.96F
CROSSVILLE     CLOUDY    67  63  87 S3        30.01S
$$

TNZ061-075-076-078-094-096-097-020900-
SOUTH MIDDLE TENNESSEE

CITY           SKY/WX    TMP DP  RH WIND       PRES   REMARKS
FAYETTEVILLE   PTCLDY    66  66 100 CALM      29.95F
TULLAHOMA      PTCLDY    68  66  94 S3        29.96F
WINCHESTER     PTCLDY    70  68  94 CALM      29.97S
SHELBYVILLE    MOCLDY    72  70  94 SE5       29.94F
$$

TNZ017-018-042-046-047-020900-
NORTHEAST TENNESSEE

CITY           SKY/WX    TMP DP  RH WIND       PRES   REMARKS
TRI CITIES     LGT RAIN  66  65  96 SW8       29.99F
ELIZABETHTON   LGT RAIN  63  63 100 W6        30.00S FOG
$$

TNZ012-013-036-069-073-074-020900-
CENTRAL EAST TENNESSEE

CITY           SKY/WX    TMP DP  RH WIND       PRES   REMARKS
KNOXVILLE      MOCLDY    68  64  87 SW9       29.98S
OAK RIDGE      CLOUDY    69  65  86 S6        29.99F
GATLINBURG     PTSUNNY   64  64 100 CALM      29.97F
MORRISTOWN     MOSUNNY   68  64  88 W8        29.99F
$$

TNZ083-085-099-020900-
SOUTHEAST TENNESSEE

CITY           SKY/WX    TMP DP  RH WIND       PRES   REMARKS
CHATTANOOGA    RAIN      69  68  96 VRB5      29.99S FOG
$$

SKY/WX REPORTED AS FAIR MEANS FEW OR NO CLOUDS BELOW
12 THOUSAND FEET.




USA.gov is the U.S. government's official web portal to all federal, state and local government web resources and services.